Vertical_Velocity
1 2 1 -1 0 0 1 1 2 0 -0 -0 -2 -1 -1 -2 -0 -0 -0 -1 -1 -1 -1 -1 -1 -1 -1 0 -0 -0 -0 2 2 -6 -1 2 -5 1 -1 -1 -1 -16 -2
2 2 3 2 -0 0 2 1 1 1 -1 -1 -2 -2 -1 -1 -0 1 -1 -2 -2 -1 -1 -1 -0 -0 -1 -1 -0 -1 -0 -2 4 -3 -1 -6 4 0 2 -8 3 -2 -1
-0 3 0 0 2 0 1 1 0 0 -1 -1 -2 -1 -1 -2 -1 -1 -2 -2 -2 -1 -1 -1 -0 -1 -0 -1 -2 -3 -3 -4 -5 -3 -10 2 -1 1 -3 -2 -2 -2 -0
2 3 1 1 2 1 1 1 0 -0 -1 -1 -2 -1 -1 -0 -1 -2 -3 -2 -1 -1 -0 -1 -1 -1 -1 -2 -1 -1 -0 -2 2 2 -5 -9 6 -1 -3 3 -8 -5 -6
1 3 2 -1 1 1 -0 0 -0 -0 -1 -2 -1 -2 0 -1 -3 -1 -1 -1 -2 -2 -1 -0 -0 -0 -0 1 -1 -2 2 -1 -2 0 -0 5 -9 -7 5 -7 -2 -3 -8
1 2 0 -0 -0 -0 -0 0 -1 -2 -1 -2 -1 1 -2 -2 -1 -2 -1 -2 -1 0 -1 -0 -2 -0 1 1 1 -4 4 -1 5 15 1 -6 -6 3 -7 5 -3 5 -20
3 3 2 0 0 0 0 -1 -2 -1 -0 1 -1 -3 -2 -0 -0 -2 -2 0 -1 -1 -0 -0 -1 0 -0 -1 -4 -3 3 -2 1 4 7 2 -3 1 -2 -7 3 5 -0
2 2 1 0 -0 -0 -1 -2 -1 0 1 -2 -2 -1 -1 -2 -2 -2 -1 -2 -1 -1 -1 0 1 -0 -2 -1 -0 3 2 -4 4 -1 1 -3 0 1 12 5 -1 -7 -4
2 -0 -1 0 -1 -2 -1 -1 1 1 -2 -1 -2 -0 -1 -2 -1 -1 -2 -1 -2 -3 -0 1 -2 -3 1 1 2 1 -0 -4 -1 1 -1 -4 -2 -0 5 -0 -5 5 -15
1 0 1 -2 -1 -1 -0 -2 1 -1 -1 -0 -1 -4 -3 -1 -2 -2 0 0 1 2 -0 -2 -0 0 -2 -0 7 -0 -3 -2 -5 -5 -1 -2 -2 -2 -1 4 3 -3 2
0 -1 -2 -3 -2 -3 2 1 -1 0 -1 -3 -1 -1 -0 -2 -1 -2 -3 -1 2 -2 -1 -3 -1 -0 -1 1 -1 1 1 -2 -3 -3 -3 -0 0 -1 -1 1 4 5 1
-1 -4 -4 -1 2 1 -0 1 -0 -3 -2 -1 -1 1 1 -0 -2 -1 0 1 -1 0 -1 -2 -2 -0 -4 -1 -1 1 -1 -1 -4 -3 -2 -3 -2 -1 -1 2 6 4 6
-3 -1 -0 2 1 1 -0 -2 -1 -1 -2 -2 -2 -4 -3 -0 0 0 0 -0 0 -3 -2 -2 0 -2 -2 -2 -1 -1 -1 -1 -1 -2 -3 -3 1 -0 0 -3 -1 2 0
-0 2 2 1 -0 -2 -1 -1 -1 -1 -0 -2 -3 -2 -1 -1 0 -2 -5 -3 -1 -1 -2 -3 -3 -1 -1 -3 -2 0 0 1 2 0 -2 0 -0 -1 -3 5 -2 -3 -5
2 1 0 -1 -1 -1 -1 -0 -0 -3 -3 -2 1 -1 -3 -3 -3 -3 -2 -2 1 -1 -1 -4 -4 -2 -3 -1 -0 -1 1 1 -1 -0 -1 -0 0 -0 -1 2 3 -1 1
-0 -1 -1 -1 -1 -0 -0 -3 -3 -1 1 1 -1 -1 0 2 1 -0 -3 -1 -1 -3 -4 -1 -1 -2 -1 -0 -2 -2 2 -1 1 2 1 1 0 -2 -4 -5 5 3 -0
-0 -1 -1 -0 -1 -3 -3 -0 3 1 -3 -2 -0 -0 0 0 1 1 0 -4 2 -2 2 -1 -2 -0 -1 -2 -1 -0 -4 4 2 1 1 -0 -1 0 1 -2 -1 2 -5
-0 -1 -1 -2 -2 -1 -0 -0 -2 -5 -5 0 6 -0 -2 -2 0 0 -1 -2 -1 2 -2 -2 -2 0 -0 -0 0 -2 -1 -1 1 0 -1 3 3 0 -4 -1 0 1 -1
-2 -2 -2 -1 -0 -0 -1 -1 -1 -1 -2 -3 -7 -3 -3 -3 -1 3 0 -0 -1 -1 -2 -1 1 0 -0 -1 -1 -1 0 -1 -0 0 0 -1 1 3 -0 3 0 3 4
-1 -1 0 1 0 0 -1 -2 -2 -2 -2 -2 -0 0 -1 -4 -5 -5 -1 -0 -2 1 -1 -0 0 0 0 0 -0 -1 -2 0 0 1 1 1 1 4 1 -1 1 0 -0
0 0 0 -0 -1 -2 -2 -2 -2 -2 -2 -0 0 2 2 -1 -2 -2 -1 -1 -0 0 -1 1 0 1 1 0 0 1 2 -0 1 -0 0 2 1 -2 4 2 0 1 2
-0 0 -0 -1 -2 -2 -1 -1 -2 -2 -2 -1 -3 -1 -0 -0 -1 0 -2 1 2 1 -0 -2 -1 -0 2 1 1 2 0 -0 1 1 -0 4 0 1 2 0 -0 5 2
-0 -1 -2 -2 -2 -1 -1 -2 -2 -0 -1 -0 -2 -2 -3 -1 -1 1 -2 1 1 1 1 1 -0 -1 2 2 4 5 1 -0 2 5 2 1 -1 1 3 6 2 1 1
-1 -1 -1 -1 -1 -2 -1 -1 -0 -1 -2 -1 -3 -1 -2 -0 -0 -0 0 1 0 1 1 1 1 2 1 1 2 2 1 7 5 -3 4 12 11 9 1 0 1 2 -0
-1 -0 -1 -2 -1 -1 -1 -1 -2 -1 -1 -1 -1 0 -1 -0 0 0 1 1 1 -0 0 1 1 1 1 1 2 3 9 -1 9 9 4 3 1 1 3 0 2 1 1
-1 -2 -2 -1 -1 -2 -2 -1 -1 -1 -2 -1 -1 0 -1 -1 0 -0 0 0 -1 1 2 0 1 3 3 1 -0 3 1 1 -0 2 1 0 -1 1 0 1 1 -1 -1
Height
1422 1428 1434 1443 1451 1457 1464 1469 1474 1477 1480 1482 1484 1486 1486 1485 1484 1483 1481 1480 1478 1475 1473 1470 1466 1462 1459 1456 1452 1449 1445 1441 1430 1420 1422 1419 1415 1410 1405 1401 1395 1388 1381
1422 1428 1435 1442 1450 1457 1463 1468 1472 1475 1478 1480 1482 1483 1483 1482 1481 1479 1478 1476 1474 1471 1468 1464 1461 1457 1453 1450 1447 1443 1439 1436 1429 1416 1413 1409 1407 1402 1397 1392 1387 1382 1373
1422 1429 1435 1443 1451 1457 1462 1467 1471 1474 1476 1478 1480 1481 1480 1479 1478 1476 1474 1472 1469 1466 1463 1459 1455 1451 1448 1445 1442 1438 1434 1430 1424 1416 1404 1402 1398 1394 1388 1383 1377 1371 1366
1424 1431 1437 1445 1452 1457 1462 1466 1470 1472 1475 1476 1477 1477 1477 1475 1474 1472 1470 1467 1464 1461 1457 1453 1450 1446 1443 1439 1436 1433 1429 1423 1418 1411 1403 1395 1390 1386 1382 1374 1368 1363 1358
1426 1433 1439 1446 1453 1458 1462 1466 1469 1471 1473 1474 1474 1474 1473 1472 1470 1468 1465 1463 1460 1456 1453 1449 1445 1441 1436 1433 1431 1427 1423 1417 1411 1405 1398 1391 1385 1379 1374 1369 1361 1354 1348
1428 1435 1441 1448 1454 1459 1463 1466 1468 1470 1471 1472 1471 1471 1470 1468 1466 1463 1461 1458 1455 1451 1447 1443 1440 1435 1431 1428 1425 1421 1417 1411 1404 1399 1392 1387 1380 1375 1369 1363 1356 1347 1335
1432 1437 1443 1449 1455 1459 1463 1465 1467 1469 1469 1469 1469 1468 1466 1464 1462 1459 1456 1453 1449 1446 1442 1438 1434 1431 1426 1422 1418 1414 1410 1406 1400 1394 1386 1382 1374 1370 1364 1355 1349 1342 1333
1435 1439 1445 1451 1456 1460 1463 1465 1466 1467 1467 1467 1466 1465 1463 1460 1458 1454 1451 1448 1444 1441 1437 1433 1429 1425 1421 1417 1412 1406 1402 1397 1393 1387 1381 1374 1369 1363 1359 1352 1343 1333 1324
1437 1442 1448 1453 1457 1461 1463 1465 1465 1465 1465 1464 1463 1461 1459 1456 1453 1450 1446 1442 1439 1436 1432 1428 1424 1420 1417 1413 1406 1399 1394 1389 1384 1379 1373 1367 1362 1357 1352 1345 1337 1330 1316
1440 1444 1449 1454 1458 1461 1463 1464 1464 1464 1463 1462 1460 1457 1454 1452 1448 1445 1441 1437 1434 1431 1427 1423 1419 1415 1410 1406 1400 1394 1387 1381 1375 1369 1365 1360 1355 1349 1345 1340 1333 1325 1316
1442 1447 1451 1455 1459 1461 1462 1462 1462 1462 1460 1459 1456 1454 1450 1447 1444 1440 1437 1432 1430 1426 1422 1417 1413 1409 1404 1399 1394 1388 1381 1376 1369 1364 1358 1353 1348 1343 1338 1333 1327 1321 1312
1444 1449 1453 1456 1458 1460 1460 1461 1460 1459 1457 1455 1453 1450 1446 1443 1439 1435 1431 1428 1425 1422 1417 1412 1407 1403 1397 1390 1384 1379 1375 1370 1364 1358 1353 1346 1341 1335 1330 1325 1319 1313 1306
1447 1451 1454 1456 1457 1458 1459 1458 1457 1456 1454 1451 1449 1445 1442 1439 1434 1430 1426 1424 1422 1417 1412 1407 1402 1395 1389 1382 1378 1373 1368 1364 1360 1354 1347 1341 1335 1329 1322 1316 1310 1304 1297
1449 1451 1453 1455 1456 1457 1457 1456 1455 1453 1450 1447 1444 1441 1437 1434 1431 1428 1424 1421 1417 1412 1407 1401 1395 1389 1383 1378 1373 1369 1365 1361 1355 1349 1342 1335 1328 1322 1316 1310 1302 1296 1288
1449 1451 1453 1455 1456 1456 1455 1454 1452 1450 1447 1444 1441 1437 1433 1430 1427 1424 1420 1416 1412 1407 1401 1395 1390 1385 1379 1375 1370 1366 1361 1356 1350 1344 1337 1330 1323 1317 1311 1305 1298 1292 1285
1450 1452 1453 1454 1454 1454 1453 1451 1449 1446 1443 1441 1437 1433 1430 1426 1422 1418 1415 1411 1407 1401 1395 1391 1386 1382 1376 1371 1366 1360 1356 1351 1346 1339 1333 1326 1319 1313 1306 1300 1295 1288 1281
1451 1452 1453 1454 1453 1452 1450 1448 1446 1443 1440 1437 1433 1430 1426 1422 1417 1412 1410 1404 1399 1395 1391 1387 1383 1378 1373 1367 1362 1357 1351 1346 1341 1334 1328 1322 1316 1310 1303 1296 1290 1284 1277
1451 1452 1453 1452 1451 1449 1447 1445 1443 1440 1436 1434 1430 1425 1421 1417 1412 1408 1403 1398 1394 1391 1387 1383 1379 1374 1369 1364 1359 1354 1348 1342 1337 1330 1325 1319 1313 1306 1299 1293 1287 1281 1274
1451 1451 1451 1450 1448 1447 1445 1443 1440 1436 1433 1429 1425 1421 1416 1412 1408 1403 1399 1395 1390 1387 1383 1379 1375 1370 1366 1361 1356 1350 1345 1339 1332 1327 1321 1315 1309 1303 1296 1290 1284 1278 1272
1450 1450 1449 1448 1447 1445 1443 1440 1437 1433 1430 1426 1422 1418 1412 1408 1404 1400 1395 1392 1388 1383 1379 1375 1371 1367 1363 1358 1352 1346 1340 1334 1329 1323 1318 1312 1306 1300 1294 1287 1282 1276 1270
1449 1449 1448 1446 1445 1443 1440 1437 1434 1430 1426 1422 1418 1414 1411 1406 1401 1397 1393 1389 1385 1380 1376 1372 1368 1364 1360 1354 1348 1342 1337 1331 1326 1320 1314 1309 1303 1296 1291 1285 1279 1274 1268
1448 1447 1446 1445 1443 1440 1437 1434 1430 1427 1423 1419 1416 1412 1407 1403 1399 1394 1390 1386 1382 1378 1374 1370 1366 1362 1356 1350 1344 1339 1333 1327 1322 1317 1311 1305 1299 1293 1288 1283 1277 1273 1267
1447 1446 1444 1442 1440 1437 1434 1430 1427 1423 1420 1416 1413 1409 1404 1400 1397 1392 1388 1384 1380 1376 1372 1368 1363 1358 1353 1347 1342 1336 1330 1324 1319 1313 1307 1301 1295 1290 1285 1281 1277 1271 1267
1445 1444 1441 1439 1436 1433 1430 1427 1424 1421 1418 1414 1410 1406 1402 1398 1394 1390 1386 1382 1378 1374 1370 1365 1361 1355 1350 1345 1339 1334 1329 1323 1317 1310 1303 1299 1294 1289 1284 1280 1275 1271 1266
1443 1441 1439 1437 1433 1430 1427 1424 1421 1417 1414 1410 1407 1402 1399 1395 1391 1387 1383 1380 1376 1372 1368 1363 1358 1353 1348 1342 1337 1333 1327 1321 1315 1310 1304 1298 1292 1288 1283 1279 1275 1271 1266
1441 1439 1436 1433 1430 1428 1424 1421 1417 1413 1410 1407 1403 1399 1395 1392 1389 1385 1382 1378 1374 1370 1366 1361 1356 1352 1346 1341 1336 1331 1325 1319 1313 1309 1303 1297 1292 1288 1284 1280 1276 1272 1268